Time,TemperatureF,DewpointF,PressureIn,WindDirection,WindDirectionDegrees,WindSpeedMPH,WindSpeedGustMPH,Humidity,HourlyPrecipIn,Conditions,Clouds,dailyrainin,SoftwareType,DateUTC
2013-05-01 00:01:00,61.5,54.9,30.10,North,0,16.0,19.0,79,0.00,,,0.00,meteohub,2013-05-01 04:01:00,
2013-05-01 00:02:00,61.5,54.7,30.10,South,169,4.0,19.0,78,0.00,,,0.00,meteohub,2013-05-01 04:02:00,
2013-05-01 00:07:00,61.5,54.9,30.10,SSE,150,15.0,19.0,79,0.00,,,0.00,meteohub,2013-05-01 04:07:00,
2013-05-01 00:12:00,61.3,54.9,30.10,SSW,199,6.0,20.0,79,0.00,,,0.00,meteohub,2013-05-01 04:12:00,
2013-05-01 00:17:00,61.3,54.9,30.11,SSE,147,12.0,23.0,79,0.00,,,0.00,meteohub,2013-05-01 04:17:00,
2013-05-01 00:22:00,61.3,54.9,30.11,South,173,11.0,23.0,79,0.00,,,0.00,meteohub,2013-05-01 04:22:00,
2013-05-01 00:27:00,61.2,54.7,30.11,SSW,195,8.0,23.0,79,0.00,,,0.00,meteohub,2013-05-01 04:27:00,
2013-05-01 00:32:00,61.3,55.0,30.11,South,178,6.0,21.0,80,0.00,,,0.00,meteohub,2013-05-01 04:32:00,
2013-05-01 00:37:00,61.3,54.9,30.11,SE,142,13.0,18.0,79,0.00,,,0.00,meteohub,2013-05-01 04:37:00,
2013-05-01 00:42:00,61.3,55.0,30.11,South,184,4.0,19.0,80,0.00,,,0.00,meteohub,2013-05-01 04:42:00,
2013-05-01 00:47:00,61.2,54.9,30.12,South,171,15.0,25.0,80,0.00,,,0.00,meteohub,2013-05-01 04:47:00,
2013-05-01 00:52:00,61.2,54.9,30.12,SSE,157,13.0,25.0,80,0.00,,,0.00,meteohub,2013-05-01 04:52:00,
2013-05-01 00:57:00,61.2,54.9,30.12,SSW,202,13.0,22.0,80,0.00,,,0.00,meteohub,2013-05-01 04:57:00,
2013-05-01 01:02:00,61.2,54.9,30.13,South,178,12.0,22.0,80,0.00,,,0.00,meteohub,2013-05-01 05:02:00,
2013-05-01 01:07:00,61.2,54.9,30.13,South,184,16.0,19.0,80,0.00,,,0.00,meteohub,2013-05-01 05:07:00,
2013-05-01 01:12:00,61.2,54.9,30.12,SSE,161,11.0,23.0,80,0.00,,,0.00,meteohub,2013-05-01 05:12:00,
2013-05-01 01:17:00,61.2,54.9,30.12,South,169,12.0,23.0,80,0.00,,,0.00,meteohub,2013-05-01 05:17:00,
2013-05-01 01:22:00,61.3,55.0,30.12,South,182,11.0,27.0,80,0.00,,,0.00,meteohub,2013-05-01 05:22:00,
2013-05-01 01:27:00,61.2,54.9,30.12,SSW,200,18.0,27.0,80,0.00,,,0.00,meteohub,2013-05-01 05:27:00,
2013-05-01 01:32:00,61.2,54.9,30.12,SSW,203,14.0,27.0,80,0.00,,,0.00,meteohub,2013-05-01 05:32:00,
2013-05-01 01:37:00,61.2,54.9,30.12,South,173,13.0,21.0,80,0.00,,,0.00,meteohub,2013-05-01 05:37:00,
2013-05-01 01:42:00,61.2,54.9,30.11,SSE,165,12.0,25.0,80,0.00,,,0.00,meteohub,2013-05-01 05:42:00,
2013-05-01 01:47:00,61.2,54.9,30.11,SSE,147,17.0,25.0,80,0.00,,,0.00,meteohub,2013-05-01 05:47:00,
2013-05-01 01:52:00,61.2,54.9,30.11,South,173,9.0,25.0,80,0.00,,,0.00,meteohub,2013-05-01 05:52:00,
2013-05-01 01:57:00,61.0,54.7,30.11,South,190,10.0,24.0,80,0.00,,,0.00,meteohub,2013-05-01 05:57:00,
2013-05-01 02:02:00,61.2,54.9,30.12,South,185,10.0,27.0,80,0.00,,,0.00,meteohub,2013-05-01 06:02:00,
2013-05-01 02:07:00,61.0,54.7,30.12,SSE,164,15.0,27.0,80,0.00,,,0.00,meteohub,2013-05-01 06:07:00,
2013-05-01 02:12:00,61.0,54.7,30.12,SSW,195,13.0,27.0,80,0.00,,,0.00,meteohub,2013-05-01 06:12:00,
2013-05-01 02:17:00,61.0,54.7,30.12,SE,139,11.0,25.0,80,0.00,,,0.00,meteohub,2013-05-01 06:17:00,
2013-05-01 02:22:00,61.0,55.0,30.12,South,190,19.0,21.0,81,0.00,,,0.00,meteohub,2013-05-01 06:22:00,
2013-05-01 02:27:00,60.8,54.9,30.11,SSW,198,7.0,24.0,81,0.00,,,0.00,meteohub,2013-05-01 06:27:00,
2013-05-01 02:32:00,60.6,54.7,30.12,South,178,19.0,24.0,81,0.00,,,0.00,meteohub,2013-05-01 06:32:00,
2013-05-01 02:37:00,60.6,54.7,30.11,South,182,13.0,24.0,81,0.00,,,0.00,meteohub,2013-05-01 06:37:00,
2013-05-01 02:42:00,60.6,54.7,30.11,SSE,166,13.0,22.0,81,0.00,,,0.00,meteohub,2013-05-01 06:42:00,
2013-05-01 02:47:00,60.6,54.7,30.11,South,173,12.0,24.0,81,0.00,,,0.00,meteohub,2013-05-01 06:47:00,
2013-05-01 02:52:00,60.4,54.5,30.11,South,188,14.0,24.0,81,0.00,,,0.00,meteohub,2013-05-01 06:52:00,
2013-05-01 02:57:00,60.4,54.5,30.12,ESE,122,6.0,24.0,81,0.00,,,0.00,meteohub,2013-05-01 06:57:00,
2013-05-01 03:02:00,60.4,54.5,30.11,South,170,16.0,22.0,81,0.00,,,0.00,meteohub,2013-05-01 07:02:00,
2013-05-01 03:07:00,60.3,54.7,30.12,SSE,158,10.0,22.0,82,0.00,,,0.00,meteohub,2013-05-01 07:07:00,
2013-05-01 03:12:00,60.4,54.9,30.12,SE,141,14.0,22.0,82,0.00,,,0.00,meteohub,2013-05-01 07:12:00,
2013-05-01 03:17:00,60.4,54.9,30.12,South,174,12.0,24.0,82,0.00,,,0.00,meteohub,2013-05-01 07:17:00,
2013-05-01 03:22:00,60.4,54.5,30.12,SSE,165,10.0,27.0,81,0.00,,,0.00,meteohub,2013-05-01 07:22:00,
2013-05-01 03:27:00,60.3,54.7,30.12,South,177,12.0,27.0,82,0.00,,,0.00,meteohub,2013-05-01 07:27:00,
2013-05-01 03:32:00,60.3,54.7,30.12,South,169,12.0,24.0,82,0.00,,,0.00,meteohub,2013-05-01 07:32:00,
2013-05-01 03:37:00,60.3,54.7,30.12,South,180,9.0,24.0,82,0.00,,,0.00,meteohub,2013-05-01 07:37:00,
2013-05-01 03:42:00,60.1,54.5,30.12,South,177,10.0,22.0,82,0.00,,,0.00,meteohub,2013-05-01 07:42:00,
2013-05-01 03:47:00,60.1,54.5,30.12,South,178,10.0,27.0,82,0.00,,,0.00,meteohub,2013-05-01 07:47:00,
2013-05-01 03:52:00,60.1,54.5,30.12,South,175,15.0,27.0,82,0.00,,,0.00,meteohub,2013-05-01 07:52:00,
2013-05-01 03:57:00,60.1,54.5,30.12,South,175,9.0,27.0,82,0.00,,,0.00,meteohub,2013-05-01 07:57:00,
2013-05-01 04:02:00,60.1,54.5,30.12,SSW,194,14.0,24.0,82,0.00,,,0.00,meteohub,2013-05-01 08:02:00,
2013-05-01 04:07:00,60.1,54.5,30.12,South,170,21.0,24.0,82,0.00,,,0.00,meteohub,2013-05-01 08:07:00,
2013-05-01 04:12:00,60.1,54.5,30.13,SSE,165,10.0,24.0,82,0.00,,,0.00,meteohub,2013-05-01 08:12:00,
2013-05-01 04:17:00,60.1,54.5,30.13,SE,146,17.0,22.0,82,0.00,,,0.00,meteohub,2013-05-01 08:17:00,
2013-05-01 04:22:00,60.1,54.5,30.13,SSE,150,9.0,22.0,82,0.00,,,0.00,meteohub,2013-05-01 08:22:00,
2013-05-01 04:27:00,60.1,54.5,30.13,SE,137,16.0,21.0,82,0.00,,,0.00,meteohub,2013-05-01 08:27:00,
2013-05-01 04:32:00,59.9,54.7,30.13,SSE,168,14.0,25.0,83,0.00,,,0.00,meteohub,2013-05-01 08:32:00,
2013-05-01 04:37:00,59.7,54.5,30.13,South,178,11.0,25.0,83,0.00,,,0.00,meteohub,2013-05-01 08:37:00,
2013-05-01 04:42:00,59.7,54.5,30.13,South,180,11.0,25.0,83,0.00,,,0.00,meteohub,2013-05-01 08:42:00,
2013-05-01 04:47:00,59.7,54.5,30.14,SSE,161,15.0,26.0,83,0.00,,,0.00,meteohub,2013-05-01 08:47:00,
2013-05-01 04:52:00,59.5,54.3,30.14,SSE,154,16.0,26.0,83,0.00,,,0.00,meteohub,2013-05-01 08:52:00,
2013-05-01 04:57:00,59.5,54.3,30.14,SE,134,9.0,26.0,83,0.00,,,0.00,meteohub,2013-05-01 08:57:00,
2013-05-01 05:02:00,59.4,54.1,30.14,South,177,17.0,21.0,83,0.00,,,0.00,meteohub,2013-05-01 09:02:00,
2013-05-01 05:07:00,59.5,54.3,30.14,SSW,193,14.0,28.0,83,0.00,,,0.00,meteohub,2013-05-01 09:07:00,
2013-05-01 05:12:00,59.4,54.1,30.14,SSE,152,19.0,28.0,83,0.00,,,0.00,meteohub,2013-05-01 09:12:00,
2013-05-01 05:17:00,59.4,54.1,30.15,South,170,10.0,28.0,83,0.00,,,0.00,meteohub,2013-05-01 09:17:00,
2013-05-01 05:22:00,59.4,54.5,30.15,South,184,17.0,24.0,84,0.00,,,0.00,meteohub,2013-05-01 09:22:00,
2013-05-01 05:27:00,59.2,54.3,30.15,South,177,10.0,25.0,84,0.00,,,0.00,meteohub,2013-05-01 09:27:00,
2013-05-01 05:32:00,59.2,54.3,30.15,SE,143,15.0,25.0,84,0.00,,,0.00,meteohub,2013-05-01 09:32:00,
2013-05-01 05:37:00,59.0,54.1,30.15,South,169,11.0,25.0,84,0.00,,,0.00,meteohub,2013-05-01 09:37:00,
2013-05-01 05:42:00,59.0,54.1,30.16,South,169,9.0,24.0,84,0.00,,,0.00,meteohub,2013-05-01 09:42:00,
2013-05-01 05:47:00,59.0,54.1,30.15,SSE,157,11.0,24.0,84,0.00,,,0.00,meteohub,2013-05-01 09:47:00,
2013-05-01 05:52:00,59.0,54.1,30.15,South,171,15.0,24.0,84,0.00,,,0.00,meteohub,2013-05-01 09:52:00,
2013-05-01 05:57:00,59.0,54.1,30.16,SE,136,16.0,24.0,84,0.00,,,0.00,meteohub,2013-05-01 09:57:00,
2013-05-01 06:02:00,59.0,54.1,30.15,SSE,161,17.0,24.0,84,0.00,,,0.00,meteohub,2013-05-01 10:02:00,
2013-05-01 06:07:00,59.0,54.1,30.15,SSE,159,11.0,29.0,84,0.00,,,0.00,meteohub,2013-05-01 10:07:00,
2013-05-01 06:12:00,59.0,54.1,30.16,SSW,192,13.0,29.0,84,0.00,,,0.00,meteohub,2013-05-01 10:12:00,
2013-05-01 06:17:00,59.0,54.1,30.16,SE,128,16.0,29.0,84,0.00,,,0.00,meteohub,2013-05-01 10:17:00,
2013-05-01 06:22:00,59.0,54.1,30.16,SSE,167,12.0,24.0,84,0.00,,,0.00,meteohub,2013-05-01 10:22:00,
2013-05-01 06:27:00,59.0,54.9,30.17,South,172,15.0,24.0,86,0.00,,,0.00,meteohub,2013-05-01 10:27:00,
2013-05-01 06:32:00,58.8,54.0,30.17,SE,144,9.0,24.0,84,0.00,,,0.00,meteohub,2013-05-01 10:32:00,
2013-05-01 06:37:00,58.6,53.8,30.17,SSE,153,11.0,24.0,84,0.00,,,0.00,meteohub,2013-05-01 10:37:00,
2013-05-01 06:42:00,58.6,53.8,30.17,South,178,16.0,20.0,84,0.00,,,0.00,meteohub,2013-05-01 10:42:00,
2013-05-01 06:47:00,58.6,53.8,30.17,SSW,192,17.0,23.0,84,0.00,,,0.00,meteohub,2013-05-01 10:47:00,
2013-05-01 06:52:00,58.6,53.8,30.17,South,175,13.0,23.0,84,0.00,,,0.00,meteohub,2013-05-01 10:52:00,
2013-05-01 06:57:00,58.6,53.8,30.17,South,171,16.0,24.0,84,0.00,,,0.00,meteohub,2013-05-01 10:57:00,
2013-05-01 07:02:00,58.6,53.8,30.17,SSE,149,10.0,24.0,84,0.00,,,0.00,meteohub,2013-05-01 11:02:00,
2013-05-01 07:07:00,58.6,53.8,30.18,SSE,147,12.0,24.0,84,0.00,,,0.00,meteohub,2013-05-01 11:07:00,
2013-05-01 07:12:00,58.6,53.8,30.18,South,182,18.0,24.0,84,0.00,,,0.00,meteohub,2013-05-01 11:12:00,
2013-05-01 07:17:00,58.6,53.8,30.18,South,172,13.0,24.0,84,0.00,,,0.00,meteohub,2013-05-01 11:17:00,
2013-05-01 07:22:00,58.8,54.0,30.18,South,177,16.0,23.0,84,0.00,,,0.00,meteohub,2013-05-01 11:22:00,
2013-05-01 07:27:00,59.0,54.1,30.19,SSE,155,12.0,24.0,84,0.00,,,0.00,meteohub,2013-05-01 11:27:00,
2013-05-01 07:32:00,59.0,54.1,30.19,South,177,20.0,24.0,84,0.00,,,0.00,meteohub,2013-05-01 11:32:00,
2013-05-01 07:37:00,59.0,53.8,30.19,SSE,158,15.0,24.0,83,0.00,,,0.00,meteohub,2013-05-01 11:37:00,
2013-05-01 07:42:00,59.0,53.8,30.19,SSE,150,14.0,24.0,83,0.00,,,0.00,meteohub,2013-05-01 11:42:00,
2013-05-01 07:47:00,59.0,53.8,30.19,SSE,166,13.0,23.0,83,0.00,,,0.00,meteohub,2013-05-01 11:47:00,
2013-05-01 07:52:00,59.5,54.0,30.19,SSW,207,10.0,23.0,82,0.00,,,0.00,meteohub,2013-05-01 11:52:00,
2013-05-01 07:57:00,59.7,54.0,30.19,SSE,165,11.0,21.0,81,0.00,,,0.00,meteohub,2013-05-01 11:57:00,
2013-05-01 08:02:00,59.9,54.1,30.19,SSE,160,12.0,26.0,81,0.00,,,0.00,meteohub,2013-05-01 12:02:00,
2013-05-01 08:07:00,60.1,54.0,30.19,SE,125,5.0,26.0,80,0.00,,,0.00,meteohub,2013-05-01 12:07:00,
2013-05-01 08:12:00,60.3,54.1,30.20,SSE,163,14.0,24.0,80,0.00,,,0.00,meteohub,2013-05-01 12:12:00,
2013-05-01 08:17:00,60.3,54.1,30.20,SSE,167,14.0,21.0,80,0.00,,,0.00,meteohub,2013-05-01 12:17:00,
2013-05-01 08:22:00,60.4,54.0,30.20,SSE,161,12.0,22.0,79,0.00,,,0.00,meteohub,2013-05-01 12:22:00,
2013-05-01 08:27:00,60.6,54.1,30.20,SSE,156,19.0,22.0,79,0.00,,,0.00,meteohub,2013-05-01 12:27:00,
2013-05-01 08:32:00,60.8,54.0,30.20,South,169,14.0,25.0,78,0.00,,,0.00,meteohub,2013-05-01 12:32:00,
2013-05-01 08:37:00,61.0,53.8,30.20,SSE,159,10.0,26.0,77,0.00,,,0.00,meteohub,2013-05-01 12:37:00,
2013-05-01 08:42:00,61.3,54.1,30.20,South,179,11.0,26.0,77,0.00,,,0.00,meteohub,2013-05-01 12:42:00,
2013-05-01 08:47:00,61.7,54.1,30.20,SSW,198,17.0,26.0,76,0.00,,,0.00,meteohub,2013-05-01 12:47:00,
2013-05-01 08:52:00,61.9,53.8,30.20,SSW,196,15.0,27.0,75,0.00,,,0.00,meteohub,2013-05-01 12:52:00,
2013-05-01 08:57:00,61.9,53.8,30.20,SSE,148,14.0,27.0,75,0.00,,,0.00,meteohub,2013-05-01 12:57:00,
2013-05-01 09:02:00,62.2,53.8,30.20,South,182,13.0,27.0,74,0.00,,,0.00,meteohub,2013-05-01 13:02:00,
2013-05-01 09:07:00,62.2,53.8,30.20,SSE,163,19.0,26.0,74,0.00,,,0.00,meteohub,2013-05-01 13:07:00,
2013-05-01 09:12:00,62.2,53.4,30.20,SE,146,14.0,25.0,73,0.00,,,0.00,meteohub,2013-05-01 13:12:00,
2013-05-01 09:17:00,62.4,53.6,30.20,SE,146,13.0,25.0,73,0.00,,,0.00,meteohub,2013-05-01 13:17:00,
2013-05-01 09:22:00,62.8,54.0,30.21,South,188,17.0,25.0,73,0.00,,,0.00,meteohub,2013-05-01 13:22:00,
2013-05-01 09:27:00,63.0,53.8,30.21,SSE,161,11.0,22.0,72,0.00,,,0.00,meteohub,2013-05-01 13:27:00,
2013-05-01 09:32:00,63.1,54.0,30.21,South,180,16.0,19.0,72,0.00,,,0.00,meteohub,2013-05-01 13:32:00,
2013-05-01 09:37:00,63.7,54.1,30.21,South,169,12.0,18.0,71,0.00,,,0.00,meteohub,2013-05-01 13:37:00,
2013-05-01 09:42:00,64.2,54.3,30.20,South,177,15.0,21.0,70,0.00,,,0.00,meteohub,2013-05-01 13:42:00,
2013-05-01 09:47:00,64.6,54.1,30.21,SSW,192,10.0,21.0,69,0.00,,,0.00,meteohub,2013-05-01 13:47:00,
2013-05-01 09:52:00,64.9,54.1,30.21,SSE,167,11.0,21.0,68,0.00,,,0.00,meteohub,2013-05-01 13:52:00,
2013-05-01 09:57:00,65.1,54.3,30.21,SE,131,13.0,21.0,68,0.00,,,0.00,meteohub,2013-05-01 13:57:00,
2013-05-01 10:02:00,65.5,54.7,30.21,SE,125,16.0,21.0,68,0.00,,,0.00,meteohub,2013-05-01 14:02:00,
2013-05-01 10:07:00,65.7,54.9,30.21,SE,143,13.0,19.0,68,0.00,,,0.00,meteohub,2013-05-01 14:07:00,
2013-05-01 10:12:00,65.7,54.3,30.21,SSE,162,14.0,20.0,67,0.00,,,0.00,meteohub,2013-05-01 14:12:00,
2013-05-01 10:17:00,65.8,54.5,30.22,South,178,11.0,21.0,67,0.00,,,0.00,meteohub,2013-05-01 14:17:00,
2013-05-01 10:22:00,66.4,54.7,30.21,SSE,168,9.0,21.0,66,0.00,,,0.00,meteohub,2013-05-01 14:22:00,
2013-05-01 10:27:00,66.6,54.9,30.21,SSE,167,12.0,21.0,66,0.00,,,0.00,meteohub,2013-05-01 14:27:00,
2013-05-01 10:32:00,66.6,54.9,30.21,SSW,198,12.0,17.0,66,0.00,,,0.00,meteohub,2013-05-01 14:32:00,
2013-05-01 10:37:00,66.6,54.5,30.21,South,169,12.0,20.0,65,0.00,,,0.00,meteohub,2013-05-01 14:37:00,
2013-05-01 10:42:00,66.7,54.7,30.21,South,172,6.0,20.0,65,0.00,,,0.00,meteohub,2013-05-01 14:42:00,
2013-05-01 10:47:00,67.1,54.5,30.21,South,191,12.0,21.0,64,0.00,,,0.00,meteohub,2013-05-01 14:47:00,
2013-05-01 10:52:00,67.5,54.9,30.21,South,187,17.0,21.0,64,0.00,,,0.00,meteohub,2013-05-01 14:52:00,
2013-05-01 10:57:00,67.6,54.7,30.21,SSW,195,13.0,21.0,63,0.00,,,0.00,meteohub,2013-05-01 14:57:00,
2013-05-01 11:02:00,67.8,54.7,30.21,SSE,163,12.0,19.0,63,0.00,,,0.00,meteohub,2013-05-01 15:02:00,
2013-05-01 11:07:00,68.2,55.0,30.21,SSW,207,12.0,19.0,63,0.00,,,0.00,meteohub,2013-05-01 15:07:00,
2013-05-01 11:12:00,68.4,54.9,30.22,South,185,12.0,19.0,62,0.00,,,0.00,meteohub,2013-05-01 15:12:00,
2013-05-01 11:17:00,68.7,55.2,30.22,SSE,157,5.0,19.0,62,0.00,,,0.00,meteohub,2013-05-01 15:17:00,
2013-05-01 11:22:00,69.1,55.6,30.22,SSE,156,6.0,19.0,62,0.00,,,0.00,meteohub,2013-05-01 15:22:00,
2013-05-01 11:27:00,69.3,55.8,30.22,SSE,164,4.0,17.0,62,0.00,,,0.00,meteohub,2013-05-01 15:27:00,
2013-05-01 11:32:00,69.6,55.6,30.22,South,172,5.0,14.0,61,0.00,,,0.00,meteohub,2013-05-01 15:32:00,
2013-05-01 11:37:00,69.4,55.4,30.22,South,171,11.0,14.0,61,0.00,,,0.00,meteohub,2013-05-01 15:37:00,
2013-05-01 11:43:00,69.6,55.0,30.21,SSE,150,8.0,17.0,60,0.00,,,0.00,meteohub,2013-05-01 15:43:00,
2013-05-01 11:48:00,69.8,55.2,30.21,South,175,7.0,18.0,60,0.00,,,0.00,meteohub,2013-05-01 15:48:00,
2013-05-01 11:53:00,70.0,55.4,30.21,ESE,123,5.0,18.0,60,0.00,,,0.00,meteohub,2013-05-01 15:53:00,
2013-05-01 11:58:00,70.2,55.6,30.21,SE,142,4.0,18.0,60,0.00,,,0.00,meteohub,2013-05-01 15:58:00,
2013-05-01 12:03:00,70.5,55.6,30.21,South,186,5.0,16.0,59,0.00,,,0.00,meteohub,2013-05-01 16:03:00,
2013-05-01 12:08:00,70.5,55.6,30.21,South,175,5.0,16.0,59,0.00,,,0.00,meteohub,2013-05-01 16:08:00,
2013-05-01 12:13:00,71.1,55.6,30.21,SSE,165,5.0,14.0,58,0.00,,,0.00,meteohub,2013-05-01 16:13:00,
2013-05-01 12:19:00,71.1,55.0,30.21,SSE,155,6.0,15.0,57,0.00,,,0.00,meteohub,2013-05-01 16:19:00,
2013-05-01 12:23:00,71.2,55.8,30.21,SE,144,6.0,15.0,58,0.00,,,0.00,meteohub,2013-05-01 16:23:00,
2013-05-01 12:29:00,71.2,54.7,30.20,SE,133,13.0,15.0,56,0.00,,,0.00,meteohub,2013-05-01 16:29:00,
2013-05-01 12:34:00,71.6,55.0,30.20,SSE,160,4.0,18.0,56,0.00,,,0.00,meteohub,2013-05-01 16:34:00,
2013-05-01 12:39:00,72.0,55.4,30.21,SSE,156,14.0,18.0,56,0.00,,,0.00,meteohub,2013-05-01 16:39:00,
2013-05-01 12:44:00,72.3,55.2,30.20,SSW,192,4.0,18.0,55,0.00,,,0.00,meteohub,2013-05-01 16:44:00,
2013-05-01 12:49:00,72.5,55.4,30.20,South,178,12.0,16.0,55,0.00,,,0.00,meteohub,2013-05-01 16:49:00,
2013-05-01 12:54:00,72.3,55.2,30.19,South,191,10.0,14.0,55,0.00,,,0.00,meteohub,2013-05-01 16:54:00,
2013-05-01 12:59:00,72.9,55.2,30.19,SSE,158,11.0,14.0,54,0.00,,,0.00,meteohub,2013-05-01 16:59:00,
2013-05-01 13:04:00,73.0,55.9,30.19,WSW,246,10.0,14.0,55,0.00,,,0.00,meteohub,2013-05-01 17:04:00,
2013-05-01 13:09:00,67.6,55.0,30.20,North,9,10.0,12.0,64,0.00,,,0.00,meteohub,2013-05-01 17:09:00,
2013-05-01 13:14:00,64.8,54.3,30.20,NNE,19,16.0,16.0,69,0.00,,,0.00,meteohub,2013-05-01 17:14:00,
2013-05-01 13:19:00,63.1,53.2,30.21,ENE,57,11.0,17.0,70,0.00,,,0.00,meteohub,2013-05-01 17:19:00,
2013-05-01 13:24:00,60.1,52.9,30.21,NE,55,15.0,17.0,77,0.00,,,0.00,meteohub,2013-05-01 17:24:00,
2013-05-01 13:30:00,57.7,52.3,30.21,East,84,11.0,17.0,82,0.00,,,0.00,meteohub,2013-05-01 17:30:00,
2013-05-01 13:35:00,56.3,51.4,30.21,East,82,11.0,17.0,84,0.00,,,0.00,meteohub,2013-05-01 17:35:00,
2013-05-01 13:40:00,56.3,51.4,30.21,East,90,11.0,17.0,84,0.00,,,0.00,meteohub,2013-05-01 17:40:00,
2013-05-01 13:45:00,57.0,51.6,30.21,ENE,72,10.0,15.0,82,0.00,,,0.00,meteohub,2013-05-01 17:45:00,
2013-05-01 13:50:00,57.6,52.2,30.21,East,80,9.0,14.0,82,0.00,,,0.00,meteohub,2013-05-01 17:50:00,
2013-05-01 13:55:00,57.9,52.5,30.21,East,84,7.0,13.0,82,0.00,,,0.00,meteohub,2013-05-01 17:55:00,
2013-05-01 14:00:00,57.7,52.3,30.21,East,82,8.0,13.0,82,0.00,,,0.00,meteohub,2013-05-01 18:00:00,
2013-05-01 14:05:00,57.7,52.7,30.21,ENE,78,9.0,10.0,83,0.00,,,0.00,meteohub,2013-05-01 18:05:00,
2013-05-01 14:10:00,57.6,52.2,30.21,East,84,7.0,11.0,82,0.00,,,0.00,meteohub,2013-05-01 18:10:00,
2013-05-01 14:15:00,57.6,52.2,30.21,East,81,10.0,12.0,82,0.00,,,0.00,meteohub,2013-05-01 18:15:00,
2013-05-01 14:20:00,57.0,51.6,30.21,ENE,77,10.0,12.0,82,0.00,,,0.00,meteohub,2013-05-01 18:20:00,
2013-05-01 14:25:00,57.0,51.6,30.21,ENE,78,10.0,12.0,82,0.00,,,0.00,meteohub,2013-05-01 18:25:00,
2013-05-01 14:30:00,56.1,51.1,30.21,East,84,10.0,14.0,83,0.00,,,0.00,meteohub,2013-05-01 18:30:00,
2013-05-01 14:35:00,56.5,51.6,30.21,East,86,11.0,14.0,84,0.00,,,0.00,meteohub,2013-05-01 18:35:00,
2013-05-01 14:41:00,56.8,51.8,30.21,East,84,10.0,14.0,83,0.00,,,0.00,meteohub,2013-05-01 18:41:00,
2013-05-01 14:46:00,56.7,51.3,30.22,East,82,10.0,13.0,82,0.00,,,0.00,meteohub,2013-05-01 18:46:00,
2013-05-01 14:51:00,56.5,51.4,30.21,East,86,10.0,12.0,83,0.00,,,0.00,meteohub,2013-05-01 18:51:00,
2013-05-01 14:56:00,56.8,51.4,30.21,ENE,78,11.0,12.0,82,0.00,,,0.00,meteohub,2013-05-01 18:56:00,
2013-05-01 15:01:00,56.5,51.4,30.21,ENE,75,10.0,12.0,83,0.00,,,0.00,meteohub,2013-05-01 19:01:00,
2013-05-01 15:06:00,55.9,50.9,30.22,ENE,73,13.0,15.0,83,0.00,,,0.00,meteohub,2013-05-01 19:06:00,
2013-05-01 15:11:00,55.2,50.7,30.22,ENE,69,13.0,15.0,85,0.00,,,0.00,meteohub,2013-05-01 19:11:00,
2013-05-01 15:16:00,55.2,51.1,30.22,ENE,75,13.0,15.0,86,0.00,,,0.00,meteohub,2013-05-01 19:16:00,
2013-05-01 15:21:00,55.4,51.3,30.22,ENE,72,11.0,15.0,86,0.00,,,0.00,meteohub,2013-05-01 19:21:00,
2013-05-01 15:26:00,55.6,51.4,30.21,East,80,13.0,14.0,86,0.00,,,0.00,meteohub,2013-05-01 19:26:00,
2013-05-01 15:31:00,55.8,51.6,30.22,East,82,15.0,16.0,86,0.00,,,0.00,meteohub,2013-05-01 19:31:00,
2013-05-01 15:36:00,56.1,52.0,30.21,ENE,72,12.0,16.0,86,0.00,,,0.00,meteohub,2013-05-01 19:36:00,
2013-05-01 15:41:00,56.7,52.9,30.22,ENE,74,14.0,16.0,87,0.00,,,0.00,meteohub,2013-05-01 19:41:00,
2013-05-01 15:47:00,57.0,52.5,30.22,ENE,70,12.0,16.0,85,0.00,,,0.00,meteohub,2013-05-01 19:47:00,
2013-05-01 15:52:00,57.4,52.5,30.22,ENE,73,12.0,15.0,84,0.00,,,0.00,meteohub,2013-05-01 19:52:00,
2013-05-01 15:57:00,57.6,52.7,30.21,ENE,69,13.0,15.0,84,0.00,,,0.00,meteohub,2013-05-01 19:57:00,
2013-05-01 16:02:00,57.7,52.7,30.21,ENE,69,15.0,15.0,83,0.00,,,0.00,meteohub,2013-05-01 20:02:00,
2013-05-01 16:07:00,57.9,52.7,30.21,ENE,76,13.0,16.0,83,0.00,,,0.00,meteohub,2013-05-01 20:07:00,
2013-05-01 16:12:00,57.7,52.3,30.22,ENE,74,14.0,16.0,82,0.00,,,0.00,meteohub,2013-05-01 20:12:00,
2013-05-01 16:17:00,57.6,52.2,30.22,ENE,67,14.0,17.0,82,0.00,,,0.00,meteohub,2013-05-01 20:17:00,
2013-05-01 16:22:00,57.2,52.3,30.22,ENE,63,10.0,17.0,84,0.00,,,0.00,meteohub,2013-05-01 20:22:00,
2013-05-01 16:27:00,57.2,52.3,30.22,ENE,65,12.0,17.0,84,0.00,,,0.00,meteohub,2013-05-01 20:27:00,
2013-05-01 16:32:00,57.4,52.3,30.21,ENE,63,12.0,15.0,83,0.00,,,0.00,meteohub,2013-05-01 20:32:00,
2013-05-01 16:37:00,57.4,52.9,30.21,ENE,70,9.0,16.0,85,0.00,,,0.00,meteohub,2013-05-01 20:37:00,
2013-05-01 16:42:00,57.7,53.2,30.21,ENE,69,14.0,16.0,85,0.00,,,0.00,meteohub,2013-05-01 20:42:00,
2013-05-01 16:47:00,58.3,53.4,30.21,ENE,76,13.0,14.0,84,0.00,,,0.00,meteohub,2013-05-01 20:47:00,
2013-05-01 16:52:00,58.3,53.1,30.22,ENE,71,14.0,14.0,83,0.00,,,0.00,meteohub,2013-05-01 20:52:00,
2013-05-01 16:57:00,58.3,53.1,30.21,ENE,67,13.0,15.0,83,0.00,,,0.00,meteohub,2013-05-01 20:57:00,
2013-05-01 17:02:00,58.5,53.2,30.22,ENE,74,11.0,15.0,83,0.00,,,0.00,meteohub,2013-05-01 21:02:00,
2013-05-01 17:07:00,58.8,53.6,30.21,ENE,65,12.0,15.0,83,0.00,,,0.00,meteohub,2013-05-01 21:07:00,
2013-05-01 17:12:00,59.0,53.2,30.21,ENE,69,13.0,14.0,81,0.00,,,0.00,meteohub,2013-05-01 21:12:00,
2013-05-01 17:17:00,59.0,53.6,30.21,ENE,58,12.0,14.0,82,0.00,,,0.00,meteohub,2013-05-01 21:17:00,
2013-05-01 17:22:00,59.0,53.6,30.21,NE,54,11.0,14.0,82,0.00,,,0.00,meteohub,2013-05-01 21:22:00,
2013-05-01 17:27:00,59.0,53.6,30.21,ENE,57,10.0,14.0,82,0.00,,,0.00,meteohub,2013-05-01 21:27:00,
2013-05-01 17:33:00,59.5,54.0,30.21,ENE,61,12.0,14.0,82,0.00,,,0.00,meteohub,2013-05-01 21:33:00,
2013-05-01 17:38:00,59.9,54.1,30.21,ENE,67,11.0,12.0,81,0.00,,,0.00,meteohub,2013-05-01 21:38:00,
2013-05-01 17:43:00,60.3,54.1,30.21,ENE,65,12.0,13.0,80,0.00,,,0.00,meteohub,2013-05-01 21:43:00,
2013-05-01 17:48:00,60.4,54.0,30.21,ENE,65,10.0,13.0,79,0.00,,,0.00,meteohub,2013-05-01 21:48:00,
2013-05-01 17:53:00,60.4,54.0,30.21,ENE,63,13.0,13.0,79,0.00,,,0.00,meteohub,2013-05-01 21:53:00,
2013-05-01 17:58:00,60.1,54.3,30.21,ENE,72,10.0,13.0,81,0.00,,,0.00,meteohub,2013-05-01 21:58:00,
2013-05-01 18:03:00,60.4,54.0,30.21,ENE,66,12.0,13.0,79,0.00,,,0.00,meteohub,2013-05-01 22:03:00,
2013-05-01 18:08:00,60.8,54.0,30.21,ENE,69,11.0,13.0,78,0.00,,,0.00,meteohub,2013-05-01 22:08:00,
2013-05-01 18:13:00,61.0,54.1,30.21,ENE,73,10.0,12.0,78,0.00,,,0.00,meteohub,2013-05-01 22:13:00,
2013-05-01 18:18:00,61.3,54.5,30.21,ENE,67,11.0,13.0,78,0.00,,,0.00,meteohub,2013-05-01 22:18:00,
2013-05-01 18:23:00,61.2,54.7,30.21,ENE,71,9.0,13.0,79,0.00,,,0.00,meteohub,2013-05-01 22:23:00,
2013-05-01 18:28:00,60.8,54.3,30.20,ENE,73,10.0,12.0,79,0.00,,,0.00,meteohub,2013-05-01 22:28:00,
2013-05-01 18:33:00,60.6,54.5,30.20,ENE,72,10.0,12.0,80,0.00,,,0.00,meteohub,2013-05-01 22:33:00,
2013-05-01 18:38:00,61.0,54.5,30.20,ENE,74,10.0,12.0,79,0.00,,,0.00,meteohub,2013-05-01 22:38:00,
2013-05-01 18:43:00,61.2,54.7,30.20,ENE,76,10.0,12.0,79,0.00,,,0.00,meteohub,2013-05-01 22:43:00,
2013-05-01 18:48:00,61.3,54.5,30.20,ENE,77,10.0,12.0,78,0.00,,,0.00,meteohub,2013-05-01 22:48:00,
2013-05-01 18:53:00,61.7,54.5,30.20,ENE,76,10.0,11.0,77,0.00,,,0.00,meteohub,2013-05-01 22:53:00,
2013-05-01 18:58:00,62.1,54.3,30.21,ENE,73,9.0,11.0,76,0.00,,,0.00,meteohub,2013-05-01 22:58:00,
2013-05-01 19:03:00,61.9,54.3,30.21,ENE,76,9.0,11.0,76,0.00,,,0.00,meteohub,2013-05-01 23:03:00,
2013-05-01 19:08:00,62.1,54.3,30.21,ENE,69,8.0,11.0,76,0.00,,,0.00,meteohub,2013-05-01 23:08:00,
2013-05-01 19:14:00,61.5,54.3,30.21,ENE,73,7.0,11.0,77,0.00,,,0.00,meteohub,2013-05-01 23:14:00,
2013-05-01 19:19:00,61.5,54.7,30.21,ENE,71,10.0,11.0,78,0.00,,,0.00,meteohub,2013-05-01 23:19:00,
2013-05-01 19:24:00,62.1,54.3,30.21,ENE,75,11.0,11.0,76,0.00,,,0.00,meteohub,2013-05-01 23:24:00,
2013-05-01 19:29:00,62.1,54.3,30.21,ENE,73,12.0,12.0,76,0.00,,,0.00,meteohub,2013-05-01 23:29:00,
2013-05-01 19:34:00,63.0,54.5,30.21,ENE,72,9.0,11.0,74,0.00,,,0.00,meteohub,2013-05-01 23:34:00,
2013-05-01 19:39:00,62.8,54.3,30.21,ENE,69,9.0,12.0,74,0.00,,,0.00,meteohub,2013-05-01 23:39:00,
2013-05-01 19:44:00,61.7,54.5,30.21,ENE,71,9.0,12.0,77,0.00,,,0.00,meteohub,2013-05-01 23:44:00,
2013-05-01 19:49:00,62.1,54.3,30.21,ENE,71,11.0,12.0,76,0.00,,,0.00,meteohub,2013-05-01 23:49:00,
2013-05-01 19:54:00,63.0,54.5,30.21,ENE,70,9.0,11.0,74,0.00,,,0.00,meteohub,2013-05-01 23:54:00,
2013-05-01 19:59:00,63.3,54.1,30.21,ENE,71,10.0,11.0,72,0.00,,,0.00,meteohub,2013-05-01 23:59:00,
2013-05-01 20:04:00,63.1,54.3,30.21,ENE,70,10.0,11.0,73,0.00,,,0.00,meteohub,2013-05-02 00:04:00,
2013-05-01 20:09:00,62.8,54.0,30.21,ENE,71,9.0,11.0,73,0.00,,,0.00,meteohub,2013-05-02 00:09:00,
2013-05-01 20:14:00,63.0,54.1,30.21,ENE,70,9.0,11.0,73,0.00,,,0.00,meteohub,2013-05-02 00:14:00,
2013-05-01 20:19:00,62.8,54.0,30.22,ENE,70,9.0,11.0,73,0.00,,,0.00,meteohub,2013-05-02 00:19:00,
2013-05-01 20:24:00,62.4,54.0,30.22,ENE,71,7.0,11.0,74,0.00,,,0.00,meteohub,2013-05-02 00:24:00,
2013-05-01 20:29:00,62.8,54.3,30.22,ENE,71,7.0,11.0,74,0.00,,,0.00,meteohub,2013-05-02 00:29:00,
2013-05-01 20:34:00,62.4,54.3,30.22,ENE,73,6.0,10.0,75,0.00,,,0.00,meteohub,2013-05-02 00:34:00,
2013-05-01 20:39:00,61.5,54.9,30.22,ENE,75,5.0,9.0,79,0.00,,,0.00,meteohub,2013-05-02 00:39:00,
2013-05-01 20:44:00,61.2,54.0,30.23,ENE,69,5.0,8.0,77,0.00,,,0.00,meteohub,2013-05-02 00:44:00,
2013-05-01 20:49:00,62.1,54.3,30.22,ENE,70,5.0,7.0,76,0.00,,,0.00,meteohub,2013-05-02 00:49:00,
2013-05-01 20:55:00,62.4,54.7,30.22,ENE,74,5.0,7.0,76,0.00,,,0.00,meteohub,2013-05-02 00:55:00,
2013-05-01 21:00:00,63.0,54.9,30.22,ENE,71,5.0,7.0,75,0.00,,,0.00,meteohub,2013-05-02 01:00:00,
2013-05-01 21:05:00,62.6,54.5,30.22,ENE,70,4.0,6.0,75,0.00,,,0.00,meteohub,2013-05-02 01:05:00,
2013-05-01 21:10:00,61.5,54.7,30.23,ENE,71,4.0,6.0,78,0.00,,,0.00,meteohub,2013-05-02 01:10:00,
2013-05-01 21:15:00,60.1,54.0,30.23,ENE,71,6.0,6.0,80,0.00,,,0.00,meteohub,2013-05-02 01:15:00,
2013-05-01 21:20:00,59.2,53.6,30.23,ENE,71,6.0,6.0,82,0.00,,,0.00,meteohub,2013-05-02 01:20:00,
2013-05-01 21:25:00,59.0,53.6,30.23,ENE,76,5.0,6.0,82,0.00,,,0.00,meteohub,2013-05-02 01:25:00,
2013-05-01 21:30:00,60.3,54.3,30.23,ENE,76,4.0,6.0,81,0.00,,,0.00,meteohub,2013-05-02 01:30:00,
2013-05-01 21:35:00,60.1,54.3,30.24,ENE,69,6.0,7.0,81,0.00,,,0.00,meteohub,2013-05-02 01:35:00,
2013-05-01 21:40:00,59.0,53.8,30.24,ENE,78,8.0,13.0,83,0.00,,,0.00,meteohub,2013-05-02 01:40:00,
2013-05-01 21:45:00,58.6,53.8,30.24,ENE,78,7.0,13.0,84,0.00,,,0.00,meteohub,2013-05-02 01:45:00,
2013-05-01 21:50:00,58.6,54.1,30.24,East,82,3.0,13.0,85,0.00,,,0.00,meteohub,2013-05-02 01:50:00,
2013-05-01 21:55:00,58.6,54.1,30.24,ENE,78,3.0,8.0,85,0.00,,,0.00,meteohub,2013-05-02 01:55:00,
2013-05-01 22:00:00,58.5,54.3,30.24,ENE,77,3.0,7.0,86,0.00,,,0.00,meteohub,2013-05-02 02:00:00,
2013-05-01 22:05:00,57.7,53.6,30.24,ENE,62,4.0,6.0,86,0.00,,,0.00,meteohub,2013-05-02 02:05:00,
2013-05-01 22:10:00,57.6,54.0,30.24,ENE,60,3.0,6.0,88,0.00,,,0.00,meteohub,2013-05-02 02:10:00,
2013-05-01 22:15:00,59.0,54.5,30.24,ENE,57,7.0,7.0,85,0.00,,,0.00,meteohub,2013-05-02 02:15:00,
2013-05-01 22:20:00,59.0,54.9,30.24,SSE,161,2.0,9.0,86,0.00,,,0.00,meteohub,2013-05-02 02:20:00,
2013-05-01 22:25:00,59.0,54.5,30.24,ENE,58,3.0,9.0,85,0.00,,,0.00,meteohub,2013-05-02 02:25:00,
2013-05-01 22:30:00,59.7,54.5,30.24,ENE,61,5.0,9.0,83,0.00,,,0.00,meteohub,2013-05-02 02:30:00,
2013-05-01 22:36:00,59.2,54.0,30.24,ENE,73,5.0,7.0,83,0.00,,,0.00,meteohub,2013-05-02 02:36:00,
2013-05-01 22:41:00,59.0,54.1,30.24,ENE,72,5.0,6.0,84,0.00,,,0.00,meteohub,2013-05-02 02:41:00,
2013-05-01 22:46:00,58.6,54.9,30.23,ENE,74,4.0,6.0,87,0.00,,,0.00,meteohub,2013-05-02 02:46:00,
2013-05-01 22:51:00,58.8,55.0,30.23,ENE,76,2.0,6.0,87,0.00,,,0.00,meteohub,2013-05-02 02:51:00,
2013-05-01 22:56:00,58.3,54.7,30.23,ENE,76,4.0,5.0,88,0.00,,,0.00,meteohub,2013-05-02 02:56:00,
2013-05-01 23:01:00,57.7,54.1,30.23,ENE,76,2.0,5.0,88,0.00,,,0.00,meteohub,2013-05-02 03:01:00,
2013-05-01 23:06:00,57.6,54.0,30.23,ENE,76,3.0,5.0,88,0.00,,,0.00,meteohub,2013-05-02 03:06:00,
2013-05-01 23:11:00,57.4,54.1,30.23,ENE,76,2.0,5.0,89,0.00,,,0.00,meteohub,2013-05-02 03:11:00,
2013-05-01 23:16:00,57.2,54.3,30.23,ENE,76,2.0,3.0,90,0.00,,,0.00,meteohub,2013-05-02 03:16:00,
2013-05-01 23:21:00,57.2,54.3,30.23,ENE,77,3.0,3.0,90,0.00,,,0.00,meteohub,2013-05-02 03:21:00,
2013-05-01 23:26:00,57.4,54.5,30.23,ENE,78,1.0,3.0,90,0.00,,,0.00,meteohub,2013-05-02 03:26:00,
2013-05-01 23:31:00,57.6,54.7,30.22,ENE,78,0.0,3.0,90,0.00,,,0.00,meteohub,2013-05-02 03:31:00,
2013-05-01 23:36:00,57.7,54.5,30.22,ENE,78,0.0,3.0,89,0.00,,,0.00,meteohub,2013-05-02 03:36:00,
2013-05-01 23:41:00,57.6,54.7,30.22,ENE,78,2.0,2.0,90,0.00,,,0.00,meteohub,2013-05-02 03:41:00,
2013-05-01 23:46:00,57.4,54.5,30.23,ENE,78,3.0,3.0,90,0.00,,,0.00,meteohub,2013-05-02 03:46:00,
2013-05-01 23:51:00,56.8,54.0,30.22,East,79,1.0,4.0,90,0.00,,,0.00,meteohub,2013-05-02 03:51:00,
2013-05-01 23:56:00,59.0,53.2,30.22,SE,125,1.0,4.0,81,0.00,,,0.00,meteohub,2013-05-02 03:56:00,